Stockton, CA

6:16 AM PDT on April 20, 2018 (GMT -0700)
Stockton Metro

Weather History for KSCK - October, 2011

Change the Weather History Date:

Monday, October 24, 2011

  Actual Average Record
Temperature  
Mean Temperature 66 °F -  
Max Temperature 81 °F 75 °F 91 °F (1959)
Min Temperature 51 °F 48 °F 39 °F (2002)
Degree Days  
Heating Degree Days 0 4  
Month to date heating degree days 35 52  
Since 1 July heating degree days 36 58  
Cooling Degree Days 1 0  
Month to date cooling degree days 51 52  
Year to date cooling degree days 1191 1318  
Growing Degree Days 16 (Base 50)    
Moisture  
Dew Point 52 °F    
Average Humidity 66    
Maximum Humidity 93    
Minimum Humidity 39    
Precipitation  
Precipitation 0.00 in 0.04 in 1.02 in (1998)
Month to date precipitation 0.73 0.53  
Year to date precipitation 9.20 9.86  
Since 1 July precipitation 0.73  
Snow  
Snow 0.00 in - 0.00 in (2002)
Month to date snowfall 0.0  
Since 1 July snowfall 0.0  
Since 1 September snowfall 0.0  
Snow Depth -    
Sea Level Pressure  
Sea Level Pressure 29.94 in    
Wind  
Wind Speed 3 mph (NW)    
Max Wind Speed 14 mph    
Max Gust Speed 17 mph    
Visibility 8 miles    
Events      
T = Trace of Precipitation, MM = Missing Value Source: NWS Daily Summary

Daily Weather History Graph

Daily Weather History Graph

Search for Another Location

Airport or City:

Astronomy

Oct. 24, 2011 Rise Set
Actual Time 7:22 AM PDT 6:15 PM PDT
Civil Twilight 6:55 AM PDT 6:42 PM PDT
Nautical Twilight 6:24 AM PDT 7:13 PM PDT
Astronomical Twilight 5:54 AM PDT 7:43 PM PDT
Moon 4:49 AM PDT (10/24) 4:42 PM PDT (10/24)
Length of Visible Light 11h 47m
Length of Day
10h 53m
Waning Crescent, 6% of the Moon is Illuminated
Oct 24
Waning Crescent
Oct 26
New
Nov 2
First Quarter
Nov 10
Full
Nov 18
Last Quarter

Hourly Weather History & Observations

Time (PDT) Temp. Heat Index Dew Point Humidity Pressure Visibility Wind Dir Wind Speed Gust Speed Precip Events Conditions
12:55 AM 59.0 °F - 54.0 °F 83% 29.93 in 8.0 mi Calm Calm - N/A   Clear
1:55 AM 57.9 °F - 53.1 °F 84% 29.92 in 7.0 mi Calm Calm - N/A   Clear
2:55 AM 57.0 °F - 52.0 °F 83% 29.92 in 7.0 mi East 3.5 mph - N/A   Clear
3:55 AM 54.0 °F - 48.0 °F 80% 29.92 in 7.0 mi Calm Calm - N/A   Clear
4:55 AM 54.0 °F - 51.1 °F 90% 29.92 in 6.0 mi Calm Calm - N/A   Clear
5:55 AM 54.0 °F - 51.1 °F 90% 29.93 in 6.0 mi NE 3.5 mph - N/A   Clear
6:55 AM 53.1 °F - 48.9 °F 86% 29.94 in 7.0 mi Calm Calm - N/A   Clear
7:55 AM 53.1 °F - 50.0 °F 89% 29.96 in 6.0 mi Calm Calm - N/A   Clear
8:55 AM 62.1 °F - 53.1 °F 72% 29.97 in 5.0 mi Calm Calm - N/A   Haze
9:55 AM 68.0 °F - 55.9 °F 65% 29.98 in 6.0 mi Calm Calm - N/A   Haze
10:55 AM 71.6 °F - 55.4 °F 57% 29.97 in 9.0 mi Calm Calm - N/A   Clear
11:55 AM 75.9 °F - 55.9 °F 50% 29.96 in 10.0 mi Calm Calm - N/A   Clear
12:55 PM 78.1 °F - 52.0 °F 40% 29.95 in 9.0 mi West 3.5 mph - N/A   Clear
1:55 PM 80.1 °F 79.9 °F 53.1 °F 39% 29.93 in 10.0 mi NW 9.2 mph - N/A   Clear
2:55 PM 80.1 °F 79.9 °F 53.1 °F 39% 29.93 in 10.0 mi NW 12.7 mph - N/A   Clear
3:55 PM 79.0 °F - 53.1 °F 40% 29.91 in 10.0 mi West 8.1 mph - N/A   Clear
4:55 PM 78.8 °F - 53.6 °F 42% 29.91 in 9.0 mi NW 8.1 mph - N/A   Clear
5:55 PM 73.9 °F - 54.0 °F 50% 29.91 in 10.0 mi NW 9.2 mph - N/A   Clear
6:55 PM 70.0 °F - 53.1 °F 55% 29.92 in 10.0 mi NNW 8.1 mph - N/A   Clear
7:55 PM 66.2 °F - 51.8 °F 60% 29.94 in 10.0 mi NNW 9.2 mph - N/A   Clear
8:55 PM 64.0 °F - 52.0 °F 65% 29.95 in 10.0 mi North 3.5 mph - N/A   Clear
9:55 PM 62.1 °F - 50.0 °F 65% 29.96 in 10.0 mi NNW 3.5 mph - N/A   Clear
10:55 PM 60.1 °F - 51.1 °F 72% 29.98 in 10.0 mi NNW 6.9 mph - N/A   Clear
11:55 PM 59.0 °F - 51.8 °F 77% 29.99 in 10.0 mi West 5.8 mph - N/A   Clear